Weather History for KSBS - February, 2012

Change the Weather History Date:

Wednesday, February 15, 2012

  Actual Average Record
Temperature  
Mean Temperature 23 °F -  
Max Temperature 35 °F 34 °F 51 °F (1997)
Min Temperature 11 °F 10 °F -27 °F (1933)
Degree Days  
Heating Degree Days 42    
Moisture  
Dew Point 17 °F    
Average Humidity 78    
Maximum Humidity 98    
Minimum Humidity 48    
Precipitation  
Precipitation 0.00 in - - ()
Sea Level Pressure  
Sea Level Pressure 29.92 in    
Wind  
Wind Speed 1 mph (WSW)    
Max Wind Speed 6 mph    
Max Gust Speed -    
Visibility 9 miles    
Events      
Averages and records for this station are not official NWS values.
T = Trace of Precipitation, MM = Missing Value Source: NWS Daily Summary

Daily Weather History Graph

Daily Weather History Graph

Search for Another Location

Airport or City:

Trip Planner

Search our weather history database for the weather conditions in past years. The results will help you decide how hot, cold, wet, or windy it might be!

Date:

Astronomy

Feb. 15, 2012 Rise Set
Actual Time 7:01 AM MST 5:42 PM MST
Civil Twilight 6:33 AM MST 6:10 PM MST
Nautical Twilight 6:01 AM MST 6:42 PM MST
Astronomical Twilight 5:30 AM MST 7:13 PM MST
Moon 1:58 AM MST (2/15) 11:39 AM MST (2/15)
Length of Visible Light 11h 36m
Length of Day
10h 40m
Last Quarter, 38% of the Moon is Illuminated
Feb 15
Last Quarter
Feb 21
New
Feb 29
First Quarter
Mar 8
Full
Mar 14
Last Quarter

Hourly Weather History & Observations

Time (MST) Temp. Windchill Dew Point Humidity Pressure Visibility Wind Dir Wind Speed Gust Speed Precip Events Conditions
12:18 AM 20.3 °F - 19.6 °F 97% 29.82 in 0.2 mi Calm Calm - N/A   Overcast
12:38 AM 21.6 °F - 21.0 °F 98% 29.82 in 0.2 mi Calm Calm - N/A   Overcast
12:58 AM 21.4 °F - 20.8 °F 98% 29.82 in 0.8 mi Calm Calm - N/A   Overcast
1:18 AM 20.3 °F - 19.8 °F 98% 29.81 in 0.5 mi Calm Calm - N/A   Overcast
1:38 AM 20.1 °F 15.2 °F 19.4 °F 97% 29.83 in 0.5 mi NW 3.5 mph - N/A   Overcast
1:58 AM 17.4 °F 9.1 °F 15.8 °F 93% 29.83 in 10.0 mi NW 5.8 mph - N/A   Overcast
2:18 AM 16.3 °F - 14.5 °F 93% 29.84 in 10.0 mi Calm Calm - N/A   Overcast
2:38 AM 16.0 °F - 14.5 °F 94% 29.84 in 10.0 mi Calm Calm - N/A   Overcast
2:58 AM 15.1 °F - 13.3 °F 93% 29.84 in 10.0 mi Calm Calm - N/A   Mostly Cloudy
3:18 AM 15.4 °F - 13.8 °F 93% 29.84 in 10.0 mi Calm Calm - N/A   Overcast
3:38 AM 15.8 °F 10.2 °F 13.8 °F 92% 29.84 in 10.0 mi SSE 3.5 mph - N/A   Overcast
3:58 AM 15.4 °F 8.1 °F 13.3 °F 91% 29.85 in 10.0 mi NW 4.6 mph - N/A   Overcast
4:18 AM 13.3 °F - 11.8 °F 94% 29.86 in 10.0 mi Calm Calm - N/A   Scattered Clouds
4:38 AM 13.6 °F - 11.8 °F 93% 29.86 in 10.0 mi Calm Calm - N/A   Clear
4:58 AM 13.8 °F - 12.4 °F 94% 29.86 in 10.0 mi Calm Calm - N/A   Scattered Clouds
5:18 AM 14.2 °F 5.3 °F 12.9 °F 95% 29.86 in 10.0 mi ESE 5.8 mph - N/A   Mostly Cloudy
5:38 AM 12.6 °F - 10.8 °F 92% 29.87 in 10.0 mi Calm Calm - N/A   Overcast
5:58 AM 14.5 °F - 13.1 °F 94% 29.87 in 10.0 mi Calm Calm - N/A   Overcast
6:18 AM 13.1 °F - 10.9 °F 91% 29.88 in 10.0 mi Calm Calm - N/A   Overcast
6:38 AM 14.7 °F - 12.9 °F 93% 29.87 in 10.0 mi Calm Calm - N/A   Overcast
6:58 AM 13.6 °F - 11.5 °F 91% 29.88 in 10.0 mi Calm Calm - N/A   Overcast
7:18 AM 12.7 °F - 10.9 °F 92% 29.88 in 10.0 mi Calm Calm - N/A   Overcast
7:38 AM 13.5 °F - 10.2 °F 87% 29.89 in 10.0 mi Calm Calm - N/A   Overcast
7:58 AM 11.3 °F - 8.6 °F 89% 29.90 in 10.0 mi Calm Calm - N/A   Scattered Clouds
8:18 AM 12.7 °F - 9.3 °F 86% 29.90 in 10.0 mi Calm Calm - N/A   Clear
8:38 AM 14.5 °F - 10.0 °F 82% 29.91 in 10.0 mi Calm Calm - N/A   Clear
8:58 AM 16.5 °F - 11.1 °F 79% 29.91 in 10.0 mi Calm Calm - N/A   Clear
9:18 AM 19.2 °F - 11.7 °F 72% 29.91 in 10.0 mi Calm Calm - N/A   Scattered Clouds
9:38 AM 19.4 °F - 11.7 °F 72% 29.92 in 10.0 mi Calm Calm - N/A   Mostly Cloudy
9:58 AM 21.4 °F - 12.6 °F 69% 29.93 in 10.0 mi Calm Calm - N/A   Overcast
10:18 AM 21.4 °F 16.6 °F 14.4 °F 74% 29.93 in 10.0 mi ESE 3.5 mph - N/A   Overcast
10:38 AM 23.9 °F 18.0 °F 14.9 °F 69% 29.93 in 10.0 mi SE 4.6 mph - N/A   Overcast
10:58 AM 26.6 °F 21.2 °F 15.4 °F 63% 29.94 in 10.0 mi NW 4.6 mph - N/A   Overcast
11:18 AM 26.2 °F - 15.6 °F 64% 29.94 in 10.0 mi Calm Calm - N/A   Overcast
11:38 AM 26.4 °F - 15.8 °F 64% 29.94 in 10.0 mi Calm Calm - N/A   Overcast
11:58 AM 29.1 °F 25.4 °F 16.2 °F 58% 29.94 in 10.0 mi WSW 3.5 mph - N/A   Overcast
12:18 PM 29.8 °F - 15.8 °F 56% 29.92 in 10.0 mi Calm Calm - N/A   Mostly Cloudy
12:38 PM 32.2 °F - 16.2 °F 52% 29.92 in 10.0 mi Calm Calm - N/A   Mostly Cloudy
12:58 PM 31.1 °F - 17.6 °F 57% 29.92 in 10.0 mi Calm Calm - N/A   Overcast
1:18 PM 34.2 °F - 18.1 °F 52% 29.91 in 10.0 mi Calm Calm - N/A   Overcast
1:58 PM 34.3 °F - 18.7 °F 53% 29.91 in 10.0 mi Calm Calm - N/A   Mostly Cloudy
2:38 PM 35.8 °F - 18.5 °F 50% 29.91 in 10.0 mi Calm Calm - N/A   Clear
2:58 PM 32.5 °F - 17.4 °F 54% 29.92 in 10.0 mi Calm Calm - N/A   Scattered Clouds
3:18 PM 35.8 °F - 18.0 °F 48% 29.92 in 10.0 mi Calm Calm - N/A   Mostly Cloudy
3:38 PM 33.8 °F 30.8 °F 18.7 °F 54% 29.92 in 10.0 mi SW 3.5 mph - N/A   Scattered Clouds
3:58 PM 33.1 °F - 18.7 °F 56% 29.93 in 10.0 mi Calm Calm - N/A   Overcast
4:18 PM 32.4 °F - 18.5 °F 57% 29.93 in 10.0 mi Calm Calm - N/A   Overcast
4:38 PM 32.2 °F 27.7 °F 18.9 °F 58% 29.94 in 10.0 mi SSW 4.6 mph - N/A   Mostly Cloudy
4:58 PM 30.4 °F - 19.4 °F 64% 29.94 in 10.0 mi Calm Calm - N/A   Scattered Clouds
5:18 PM 29.5 °F - 19.4 °F 66% 29.95 in 10.0 mi Calm Calm - N/A   Mostly Cloudy
5:38 PM 28.9 °F - 19.8 °F 69% 29.96 in 10.0 mi Calm Calm - N/A   Mostly Cloudy
5:58 PM 28.2 °F 24.4 °F 19.9 °F 71% 29.97 in 10.0 mi WSW 3.5 mph - N/A   Mostly Cloudy
6:18 PM 27.5 °F - 20.8 °F 76% 29.98 in 10.0 mi Calm Calm - N/A   Overcast
6:38 PM 27.3 °F 23.4 °F 21.2 °F 78% 29.99 in 10.0 mi NW 3.5 mph - N/A   Overcast
6:58 PM 27.3 °F 22.0 °F 21.6 °F 79% 30.00 in 10.0 mi West 4.6 mph - N/A   Overcast
7:18 PM 27.0 °F - 21.9 °F 81% 30.00 in 10.0 mi Calm Calm - N/A   Overcast
7:38 PM 27.3 °F - 21.9 °F 80% 30.02 in 10.0 mi Calm Calm - N/A   Overcast
7:58 PM 27.0 °F - 21.6 °F 80% 30.02 in 10.0 mi Calm Calm - N/A   Overcast
8:18 PM 27.1 °F - 21.7 °F 80% 30.01 in 10.0 mi Calm Calm - N/A   Overcast
8:38 PM 27.1 °F - 21.9 °F 81% 30.02 in 10.0 mi Calm Calm - N/A   Overcast
8:58 PM 26.6 °F - 21.7 °F 82% 30.02 in 10.0 mi Calm Calm - N/A   Scattered Clouds
9:18 PM 26.2 °F - 21.6 °F 82% 30.03 in 10.0 mi Calm Calm - N/A   Mostly Cloudy
9:38 PM 25.7 °F - 21.6 °F 84% 30.04 in 10.0 mi Calm Calm - N/A   Overcast
9:58 PM 25.3 °F - 21.0 °F 84% 30.05 in 7.0 mi Calm Calm - N/A   Overcast
10:18 PM 25.3 °F - 21.7 °F 86% 30.06 in 4.0 mi Calm Calm - N/A   Overcast
10:38 PM 24.8 °F - 23.0 °F 93% 30.06 in 3.0 mi Calm Calm - N/A   Overcast
10:58 PM 24.8 °F 19.1 °F 23.5 °F 95% 30.07 in 4.0 mi ENE 4.6 mph - N/A   Overcast
11:18 PM 24.4 °F 15.6 °F 22.6 °F 93% 30.07 in 4.0 mi ENE 8.1 mph - N/A   Overcast
11:38 PM 24.6 °F 20.3 °F 23.2 °F 94% 30.07 in 2.5 mi East 3.5 mph - N/A   Overcast
11:58 PM 24.8 °F 19.1 °F 23.7 °F 96% 30.08 in 1.5 mi ENE 4.6 mph - N/A   Overcast